Torna al catalogo

DELTA 1 DEB

AttivoLEO
NORAD 7186·DEBRIS·🇺🇸 United States

Lanciato Nov 6, 1973 da Vandenberg Space Force Base

Loading…

Prossimi Passaggi (prossime 24 ore)

TLE

AggiornatoSource: Space-Track

Epoca: Sep 14, 2026, 10:49 UTC

1 07186U 73086EX  26257.45119056 -.00000128  00000-0 -21767-3 0  9998
2 07186 101.8041  71.1378 0224333  21.4389   7.0072 13.01787714490019

Traccia DELTA 1 DEB in tempo reale con AllMySat

Download on the App Store